Stations météo

Publicité
Saarbrücken-Ensheim, Allemagne (10708): Température de l'air & dewpoint: 14.09.2019 05:00:00 - 20.09.2019 05:00:00 (CEST)Saarbrücken-Ensheim, Allemagne (10708): Température de l'air 5cm & Température de l'air -5cm: 14.09.2019 05:00:00 - 20.09.2019 05:00:00 (CEST)Saarbrücken-Ensheim, Allemagne (10708): Température de l'air -20cm & Température de l'air -100cm: 14.09.2019 05:00:00 - 20.09.2019 05:00:00 (CEST)Saarbrücken-Ensheim, Allemagne (10708): Vitesse du vent & gusts: 14.09.2019 05:00:00 - 20.09.2019 05:00:00 (CEST)Saarbrücken-Ensheim, Allemagne (10708): Direction du vent: 14.09.2019 05:00:00 - 20.09.2019 05:00:00 (CEST)Saarbrücken-Ensheim, Allemagne (10708): reduced air pressure: 14.09.2019 05:00:00 - 20.09.2019 05:00:00 (CEST)Saarbrücken-Ensheim, Allemagne (10708): visibility: 14.09.2019 05:00:00 - 20.09.2019 05:00:00 (CEST)Saarbrücken-Ensheim, Allemagne (10708): Ensoleillement: 14.09.2019 05:00:00 - 20.09.2019 05:00:00 (CEST)Saarbrücken-Ensheim, Allemagne (10708): Quantités de précipitations: 14.09.2019 05:00:00 - 20.09.2019 05:00:00 (CEST)
Date & Time tt [°C] td [°C] tt 5cm [°C] tt -5cm [°C] tt -20cm [°C] tt -100cm [°C] ff [km/h] ff [knt] fx [km/h] fx [knt] dd ppp [hPa] vv [km] sd [min] rr [mm]
20.09.2019 05:00:00 6,9 1,2 5,5 10,0 15,4 18,2 15 8 24 13 NNE 1028,7 10 0 0,0
20.09.2019 04:00:00 6,6 1,0 5,2 10,4 15,8 18,2 11 6 23 13 NE 1028,8 10 0 0,0
20.09.2019 03:00:00 6,6 1,0 5,1 10,9 16,2 18,2 11 6 16 9 NE 1029,1 10 0 0,0
20.09.2019 02:00:00 7,9 1,1 6,4 11,5 16,6 18,2 11 6 21 11 NE 1029,5 10 0 0,0
20.09.2019 01:00:00 8,0 1,1 6,4 12,1 17,1 18,2 11 6 21 11 NE 1029,6 10 0 0,0
20.09.2019 00:00:00 8,5 1,5 4,6 12,9 17,6 18,3 11 6 17 9 NE 1029,6 10 0 0,0
19.09.2019 23:00:00 9,4 1,1 7,6 13,9 18,1 18,3 13 7 22 12 NE 1029,5 10 0 0,0
19.09.2019 22:00:00 11,0 0,8 9,5 14,9 18,7 18,3 15 8 26 14 NE 1029,3 10 0 0,0
19.09.2019 21:00:00 11,0 1,1 9,2 16,2 19,2 18,3 14 7 18 10 ENE 1028,8 50 0 0,0
19.09.2019 20:00:00 11,1 1,4 9,3 18,2 19,6 18,3 13 7 26 14 ENE 1028,4 10 35 0,0
19.09.2019 19:00:00 14,5 0,8 14,1 20,3 19,8 18,3 18 10 31 17 ENE 1027,7 60 60 0,0
19.09.2019 18:00:00 15,6 0,2 16,3 22,1 19,7 18,3 22 12 35 19 ENE 1027,6 10 60 0,0
19.09.2019 17:00:00 16,2 0,2 17,8 23,5 19,4 18,3 21 11 35 19 NNE 1027,5 10 60 0,0
19.09.2019 16:00:00 16,3 1,1 18,8 24,0 18,8 18,3 16 9 33 18 NE 1027,7 10 60 0,0
19.09.2019 15:00:00 16,0 1,3 18,1 24,0 18,1 18,3 21 12 33 18 NNE 1027,8 60 60 0,0
19.09.2019 14:00:00 14,6 2,9 17,9 23,0 17,2 18,3 18 10 33 18 NE 1028,6 60 60 0,0
19.09.2019 13:00:00 14,4 3,4 17,6 21,4 16,3 18,3 21 11 40 21 NE 1029,0 10 56 0,0
19.09.2019 12:00:00 13,6 4,4 15,5 18,7 15,7 18,3 21 11 37 20 NE 1029,2 10 58 0,0
19.09.2019 11:00:00 11,7 4,8 13,6 15,8 15,3 18,3 22 12 35 19 NE 1029,3 60 60 0,0
19.09.2019 10:00:00 10,6 4,9 12,0 13,2 15,1 18,3 21 11 35 19 NE 1028,9 10 60 0,0
19.09.2019 09:00:00 8,7 4,4 9,4 11,1 15,3 18,3 18 10 29 15 NNE 1029,0 10 60 0,0
19.09.2019 08:00:00 7,3 3,7 6,6 10,2 15,5 18,3 15 8 24 13 NE 1028,6 10 19 0,0
19.09.2019 07:00:00 6,4 3,1 5,2 10,5 15,9 18,3 13 7 24 13 NE 1028,1 10 0 0,0
19.09.2019 06:00:00 7,6 3,2 6,4 11,0 16,2 18,3 15 8 26 14 NE 1027,6 40 0 0,0
19.09.2019 05:00:00 7,8 3,0 6,6 11,5 16,5 18,3 16 9 25 14 NE 1027,6 10 0 0,0
19.09.2019 04:00:00 8,6 2,9 7,4 11,9 16,9 18,3 16 8 24 13 NE 1027,5 40 0 0,0
19.09.2019 03:00:00 9,0 2,7 7,7 12,4 17,3 18,4 13 7 25 14 NE 1027,4 10 0 0,0
19.09.2019 02:00:00 9,6 2,5 8,5 13,0 17,7 18,4 15 8 26 14 NNE 1027,3 10 0 0,0
19.09.2019 01:00:00 10,5 2,6 9,3 13,6 18,2 18,4 16 9 23 12 NNE 1027,0 10 0 0,0
19.09.2019 00:00:00 11,0 2,6 9,9 14,3 18,7 18,4 13 7 22 12 NNE 1026,6 10 0 0,0
18.09.2019 23:00:00 11,2 2,7 9,9 15,2 19,2 18,4 12 6 18 10 NE 1026,5 40 0 0,0
18.09.2019 22:00:00 12,3 2,9 10,8 16,3 19,7 18,4 13 7 24 13 NNE 1026,0 10 0 0,0
18.09.2019 21:00:00 13,0 2,8 11,8 17,6 20,2 18,4 11 6 22 12 NNE 1025,5 50 0 0,0
18.09.2019 20:00:00 13,6 3,1 11,9 19,4 20,6 18,4 9 5 22 12 NNE 1024,9 50 35 0,0
18.09.2019 19:00:00 15,9 2,5 15,4 21,6 20,8 18,4 15 8 27 14 NE 1024,2 50 60 0,0
18.09.2019 18:00:00 16,9 2,2 17,8 23,4 20,7 18,4 16 9 29 16 ENE 1023,9 50 60 0,0
18.09.2019 17:00:00 17,2 2,2 19,0 24,7 20,3 18,4 18 10 32 17 NE 1023,9 10 60 0,0
18.09.2019 16:00:00 17,0 2,3 19,3 25,2 19,7 18,4 16 9 33 18 NNE 1024,2 50 60 0,0
18.09.2019 15:00:00 16,6 2,8 19,4 25,0 18,9 18,4 18 10 37 20 NE 1024,4 10 60 0,0
18.09.2019 14:00:00 15,9 1,9 18,8 23,9 18,1 18,4 22 12 34 18 ENE 1025,0 10 60 0,0
18.09.2019 13:00:00 15,7 3,5 18,7 22,1 17,2 18,4 19 10 31 17 NNE 1025,3 50 60 0,0
18.09.2019 12:00:00 14,0 3,4 16,2 19,4 16,6 18,4 18 10 31 17 NE 1025,6 10 60 0,0
18.09.2019 11:00:00 12,9 4,4 15,0 16,5 16,2 18,4 21 11 34 18 NE 1025,7 10 60 0,0
18.09.2019 10:00:00 10,9 4,7 12,1 13,9 16,1 18,3 21 11 31 17 NE 1026,0 10 60 0,0
18.09.2019 09:00:00 8,9 4,3 9,7 11,7 16,3 18,3 15 8 29 15 NE 1025,8 10 60 0,0
18.09.2019 08:00:00 7,3 3,8 6,9 10,8 16,6 18,3 16 9 25 14 NE 1025,8 10 25 0,0
18.09.2019 07:00:00 7,0 3,7 6,0 11,1 17,0 18,3 13 7 21 11 NNE 1025,6 10 0 0,0
18.09.2019 06:00:00 6,5 3,3 4,6 11,7 17,5 18,3 8 4 15 8 ENE 1025,5 10 0 0,0
18.09.2019 05:00:00 7,4 3,5 5,4 12,4 17,9 18,3 9 5 21 11 NE 1025,4 50 0 0,0
18.09.2019 04:00:00 8,6 3,8 7,3 13,2 18,4 18,3 11 6 18 10 NE 1024,9 10 0 0,0
18.09.2019 03:00:00 9,9 4,0 8,6 13,9 18,8 18,3 13 7 29 15 NNE 1024,6 10 0 0,0
18.09.2019 02:00:00 10,9 4,1 9,8 14,7 19,3 18,3 14 7 31 17 NE 1024,2 50 0 0,0
18.09.2019 01:00:00 12,2 6,0 11,1 15,5 19,8 18,3 19 10 29 16 NE 1023,6 50 0 0,0
18.09.2019 00:00:00 12,9 5,9 11,5 16,2 20,3 18,3 15 8 29 15 N 1023,1 10 0 0,0
17.09.2019 23:00:00 13,1 5,7 10,8 17,2 20,8 18,3 9 5 15 8 NNE 1022,8 10 0 0,0
17.09.2019 22:00:00 13,7 6,1 10,6 18,4 21,4 18,3 9 5 22 12 N 1022,4 10 0 0,0
17.09.2019 21:00:00 15,0 6,3 13,0 19,9 22,0 18,3 10 5 25 14 N 1021,7 50 0 0,0
17.09.2019 20:00:00 16,1 5,4 14,5 21,9 22,5 18,3 13 7 22 12 NNW 1020,6 50 35 0,0
17.09.2019 19:00:00 18,7 6,3 18,9 24,5 22,7 18,3 15 8 23 13 NNW 1019,9 10 60 0,0
17.09.2019 18:00:00 20,0 6,4 22,1 26,7 22,5 18,3 13 7 25 13 NW 1019,5 10 60 0,0
17.09.2019 17:00:00 19,6 7,0 23,7 28,1 22,1 18,3 11 6 25 13 WNW 1019,5 50 60 0,0
17.09.2019 16:00:00 19,7 7,6 23,8 28,7 21,3 18,3 16 9 25 13 NW 1019,7 50 60 0,0
17.09.2019 15:00:00 19,0 7,1 24,5 28,1 20,4 18,3 11 6 26 14 NW 1019,9 10 60 0,0
17.09.2019 14:00:00 18,3 7,8 23,3 26,1 19,6 18,3 9 5 26 14 WNW 1020,4 10 58 0,0
17.09.2019 13:00:00 17,5 9,0 22,1 21,3 19,1 18,3 4 2 18 10 NNW 1021,0 50 13 0,0
17.09.2019 12:00:00 15,9 8,7 17,8 20,4 18,8 18,3 9 5 15 8 NNW 1021,4 10 0 0,0
17.09.2019 11:00:00 15,5 8,6 17,6 19,1 18,6 18,3 11 6 20 11 N 1021,4 10 5 0,0
17.09.2019 10:00:00 14,9 9,0 16,4 17,2 18,7 18,3 10 5 18 10 NNE 1021,3 35 5 0,0
17.09.2019 09:00:00 13,1 9,3 13,1 16,5 18,9 18,3 11 6 18 10 N 1021,3 10 0 0,0
17.09.2019 08:00:00 13,0 10,9 12,5 16,8 19,0 18,3 11 6 21 11 N 1020,8 10 0 0,0
17.09.2019 07:00:00 14,3 11,4 14,2 17,2 19,2 18,3 10 5 21 11 NE 1020,1 20 0 0,0
17.09.2019 06:00:00 14,9 12,3 14,7 17,5 19,4 18,3 13 7 19 10 NE 1019,8 10 0 0,0
17.09.2019 05:00:00 15,7 12,0 15,5 17,7 19,6 18,2 5 3 13 7 ENE 1019,6 10 0 0,0
17.09.2019 04:00:00 16,1 11,7 15,8 18,0 19,7 18,2 5 3 13 7 NE 1019,4 10 0 0,0
17.09.2019 03:00:00 16,6 12,4 15,9 18,3 19,9 18,2 5 3 9 5 NNE 1019,3 10 0 0,0
17.09.2019 02:00:00 16,7 12,0 16,0 18,4 20,2 18,2 8 4 9 5 NW 1019,3 10 0 0,0
17.09.2019 01:00:00 17,3 11,5 16,6 18,7 20,4 18,2 9 5 9 5 W 1019,4 10 0 0,0
17.09.2019 00:00:00 17,3 10,7 16,2 18,9 20,7 18,2 4 2 9 5 - 1019,3 10 0 0,0
16.09.2019 23:00:00 17,7 10,4 16,2 19,2 21,1 18,2 7 4 9 5 NNW 1019,2 50 0 0,0
16.09.2019 22:00:00 17,3 10,1 14,6 20,2 21,5 18,2 5 3 16 9 N 1019,2 10 0 0,0
16.09.2019 21:00:00 19,2 9,2 17,5 21,3 21,9 18,2 7 4 13 7 NW 1018,6 50 0 0,0
16.09.2019 20:00:00 19,4 9,7 17,9 22,6 22,2 18,2 8 4 13 7 WNW 1018,3 10 0 0,0
16.09.2019 19:00:00 21,6 9,1 20,6 24,2 22,4 18,2 9 5 13 7 W 1017,9 10 0 0,0
16.09.2019 18:00:00 22,5 8,4 22,6 25,5 22,4 18,2 8 5 16 9 W 1017,8 50 1 0,0
16.09.2019 17:00:00 23,2 10,1 24,3 26,7 22,2 18,2 9 5 18 10 WNW 1018,1 10 2 0,0
16.09.2019 16:00:00 23,2 10,2 25,7 27,5 21,7 18,2 13 7 19 10 WNW 1018,4 10 6 0,0
16.09.2019 15:00:00 23,0 9,6 25,7 28,6 21,0 18,2 11 6 18 10 WNW 1018,9 10 33 0,0
16.09.2019 14:00:00 23,1 10,0 26,2 28,1 20,0 18,2 8 4 16 9 - 1019,4 10 39 0,0
16.09.2019 13:00:00 22,8 9,7 27,3 26,6 19,0 18,2 8 4 14 8 W 1019,7 50 60 0,0
16.09.2019 12:00:00 20,9 11,7 24,2 22,0 18,3 18,2 4 2 9 5 - 1020,2 10 18 0,0
16.09.2019 11:00:00 19,9 8,4 21,0 20,5 17,8 18,2 4 2 9 5 - 1020,5 10 38 0,0
16.09.2019 10:00:00 17,9 9,1 19,3 17,4 17,5 18,2 6 4 11 6 ESE 1020,7 50 59 0,0
16.09.2019 09:00:00 15,1 9,4 15,4 14,7 17,6 18,2 4 2 11 6 ENE 1020,9 50 42 0,0
16.09.2019 08:00:00 11,4 8,5 9,0 13,6 17,9 18,1 7 4 13 7 NE 1021,5 40 0 0,0
16.09.2019 07:00:00 10,7 8,4 8,1 13,8 18,3 18,1 9 5 15 8 ENE 1021,4 10 0 0,0
16.09.2019 06:00:00 11,9 8,4 7,3 14,3 18,7 18,1 4 2 9 5 - 1021,4 10 0 0,0
16.09.2019 05:00:00 11,6 8,8 8,5 14,8 19,1 18,1 4 2 9 5 - 1021,8 10 0 0,0
16.09.2019 04:00:00 12,2 8,9 8,8 15,4 19,5 18,1 4 2 8 4 - 1021,9 10 0 0,0
16.09.2019 03:00:00 13,3 9,2 9,8 16,0 19,9 18,1 5 3 9 5 NE 1022,1 10 0 0,0
16.09.2019 02:00:00 14,8 9,5 10,9 16,7 20,4 18,1 6 3 9 5 ESE 1021,7 50 0 0,0
16.09.2019 01:00:00 13,5 9,4 10,8 17,5 20,9 18,1 2 1 5 3 SE 1022,3 50 0 0,0
16.09.2019 00:00:00 14,2 10,0 11,2 18,4 21,5 18,1 0 0 5 3 N 1022,4 50 0 0,0
15.09.2019 23:00:00 15,7 10,1 11,8 19,5 22,1 18,1 2 1 4 2 SSW 1022,2 10 0 0,0
15.09.2019 22:00:00 16,4 9,7 12,3 20,8 22,7 18,1 2 1 4 2 - 1022,0 10 0 0,0
15.09.2019 21:00:00 18,0 9,9 14,2 22,6 23,3 18,1 4 2 4 2 NE 1021,8 10 0 0,0
15.09.2019 20:00:00 20,2 10,1 16,6 25,0 23,7 18,1 4 2 11 6 - 1021,3 10 47 0,0
15.09.2019 19:00:00 24,5 9,5 24,0 27,6 23,8 18,1 8 4 16 9 W 1020,5 10 60 0,0
15.09.2019 18:00:00 25,3 9,2 27,0 29,7 23,6 18,1 15 8 22 12 WSW 1020,9 10 60 0,0
15.09.2019 17:00:00 25,5 9,4 28,7 31,1 23,1 18,1 15 8 24 13 W 1021,4 10 60 0,0
15.09.2019 16:00:00 25,8 11,2 29,8 31,7 22,2 18,1 13 7 21 11 WNW 1021,8 10 60 0,0
15.09.2019 15:00:00 24,3 11,3 28,9 31,2 21,2 18,1 11 6 22 12 W 1022,7 10 60 0,0
15.09.2019 14:00:00 23,9 13,4 28,1 30,1 20,1 18,1 11 6 21 11 W 1023,3 10 60 0,0
15.09.2019 13:00:00 22,1 12,2 27,9 28,3 18,9 18,1 9 5 16 8 W 1024,2 10 60 0,0
15.09.2019 12:00:00 20,8 12,5 24,4 25,2 17,9 18,1 7 4 12 6 W 1024,8 50 60 0,0
15.09.2019 11:00:00 19,6 12,7 23,3 21,5 17,2 18,1 5 3 9 5 W 1024,9 10 60 0,0
15.09.2019 10:00:00 18,3 11,9 20,5 17,8 16,9 18,1 4 2 5 3 - 1025,0 10 60 0,0
15.09.2019 09:00:00 15,6 10,5 16,4 14,6 16,9 18,1 2 1 4 2 ENE 1025,5 40 60 0,0
15.09.2019 08:00:00 11,7 10,0 9,7 12,9 17,2 18,1 3 2 5 3 E 1026,0 40 31 0,0
15.09.2019 07:00:00 10,2 8,7 7,7 13,2 17,6 18,1 4 2 5 3 NE 1025,9 40 0 0,0
15.09.2019 06:00:00 11,2 9,4 8,6 13,7 17,9 18,1 4 2 11 6 - 1025,9 10 0 0,0
15.09.2019 05:00:00 12,6 9,5 9,2 14,3 18,3 18,1 8 4 13 7 E 1026,0 10 0 0,0
15.09.2019 04:00:00 13,5 9,7 10,3 14,8 18,6 18,1 6 3 18 10 E 1026,1 40 0 0,0
15.09.2019 03:00:00 13,9 10,0 11,5 15,3 19,0 18,1 13 7 22 12 NE 1026,6 10 0 0,0
15.09.2019 02:00:00 14,2 10,2 11,5 15,9 19,5 18,1 11 6 19 10 NE 1026,9 10 0 0,0
15.09.2019 01:00:00 14,4 10,2 12,0 16,5 19,9 18,1 11 6 16 9 NE 1027,1 10 0 0,0
15.09.2019 00:00:00 13,9 10,2 11,9 17,3 20,5 18,1 9 5 15 8 ENE 1027,5 10 0 0,0
14.09.2019 23:00:00 15,1 10,5 13,5 18,4 21,0 18,1 9 5 18 10 ENE 1028,0 50 0 0,0
14.09.2019 22:00:00 15,4 11,2 13,5 19,7 21,6 18,1 13 7 16 9 NE 1028,2 10 0 0,0
14.09.2019 21:00:00 17,7 11,4 15,9 21,4 22,1 18,1 11 6 16 9 NE 1027,9 10 0 0,0
14.09.2019 20:00:00 19,2 11,8 17,1 23,5 22,5 18,1 9 5 15 8 NE 1027,4 10 45 0,0
14.09.2019 19:00:00 22,1 11,6 21,9 25,8 22,6 18,1 13 7 24 13 NE 1027,1 60 60 0,0
14.09.2019 18:00:00 23,6 11,9 24,6 27,9 22,3 18,1 12 6 21 11 NE 1026,9 60 60 0,0
14.09.2019 17:00:00 23,7 11,4 25,8 29,1 21,7 18,1 9 5 19 10 E 1027,4 10 60 0,0
14.09.2019 16:00:00 23,5 12,2 25,8 29,4 20,9 18,1 10 6 25 14 ENE 1028,0 50 60 0,0
14.09.2019 15:00:00 23,0 12,4 26,0 28,6 20,0 18,1 15 8 22 12 NNE 1028,6 10 59 0,0
14.09.2019 14:00:00 21,8 12,0 24,5 27,2 19,0 18,1 13 7 26 14 E 1029,5 10 60 0,0
14.09.2019 13:00:00 20,6 12,3 23,8 24,8 18,0 18,1 11 6 24 13 ENE 1030,3 10 60 0,0
14.09.2019 12:00:00 18,9 12,3 21,3 21,8 17,4 18,1 13 7 23 12 NE 1031,0 10 60 0,0
14.09.2019 11:00:00 17,1 12,0 18,5 19,3 16,9 18,1 13 7 30 16 NE 1031,3 10 60 0,0
14.09.2019 10:00:00 16,2 11,9 17,3 16,9 16,7 18,1 18 10 29 16 ENE 1031,6 45 60 0,0
14.09.2019 09:00:00 14,5 11,4 15,0 14,8 16,8 18,1 16 9 29 15 NE 1032,2 40 60 0,0
14.09.2019 08:00:00 13,3 10,8 12,7 13,8 17,0 18,1 16 9 28 15 NE 1032,1 10 22 0,0
14.09.2019 07:00:00 13,2 10,7 12,1 14,0 17,2 18,1 15 8 31 17 NE 1031,5 10 0 0,0
14.09.2019 06:00:00 13,4 10,9 12,4 14,4 17,5 18,1 18 10 30 16 NE 1031,5 10 0 0,0
14.09.2019 05:00:00 14,2 12,0 13,2 14,8 17,7 18,1 15 8 26 14 NE 1031,7 10 0 0,0

tt = Température de l'air
td = dewpoint
tt 5cm = Température de l'air 5cm
tt -5cm = Température de l'air -5cm
tt -20cm = Température de l'air -20cm
tt -100cm = Température de l'air -100cm
ff = Vitesse du vent
fx = gusts
dd = Direction du vent
ppp = reduced air pressure
vv = visibility
sd = Ensoleillement
rr = Quantités de précipitations

stations d'obs. à proximité